Location: Piotrkow Trybunalski
(51.4000°N, 19.6830°E)
Time: 13:11:03
(UTC+02:00)

A-11 Canister half - Pass Details

Date: 29 January 2023
Orbit: 1526 x 1682 km, 47.3° (Epoch: 26 March)

Event Time Altitude Azimuth Distance (km) Brightness Sun altitude
Rises 07:40:39 0° 235° (SW) 4,670 11.3 1.4°
Reaches altitude 10° 07:43:44 10° 231° (SW) 3,694 10.8 1.8°
Maximum altitude 07:52:41 55° 157° (SSE) 1,814 10.0 3.0°
Drops below altitude 10° 08:01:53 10° 83° (E) 3,787 11.9 4.1°
Sets 08:05:05 0° 80° (E) 4,794 12.3 4.5°
